星链-2545 (STARLINK-2545 )

导读

STARLINK-2545是美国SpaceX公司星链星座的V1.0批次卫星,于2021年4月29日发射入轨,属于星链第一代低轨互联网星座。卫星重量约227公斤,运行在550公里左右近地轨道,配备相控阵天线与氪离子推进系统,支持Ku波段通信,具备自主碰撞规避能力,设计寿命约5年,为全球偏远地区提供宽带互联网接入服务,是星链大规模组网过程中的一员。

基本信息
目录编号:
48289
目录名称:
STARLINK-2545
国际标识:
2021-036P
轨道中心:
EARTH
卫星名称:
星链-2545
卫星全名:
星链-2545 (STARLINK-2545 )
卫星状态:
在轨 (已飞行1873 天)
发射日期:
2021-04-29 UTC
国别 :
美国 (US)
星等 :
--
轨道信息
数据来源 国际轨道数据 AOE轨道数据
星历时间 2026-06-15T02:18:03+0800
11小时前
查看轨道信息
2026-06-15T08:00:00+0800
5小时前
查看轨道信息
半长轴 6848.91km 6848.964km
偏心率 0.0001498 0.0001264
轨道倾角 53.160° 53.161°
近地点辐角 84.234° 80.573°
升交点赤经 344.103° 342.996°
平近点角 275.884° 149.693°
近地点 469.747km 469.961km
远地点 471.799km 471.693km
周期 94.014分钟 94.015分钟
每日圈数 15.316891 15.31671
详细信息
固有亮度:
5
最大亮度:
2.5
卫星平台:
Starlink V1.0
覆盖范围:
全球
运营商:
太空探索技术公司
运营商所在国:
美国
制造商(研发单位):
太空探索技术公司
制造商所在国:
美国
使用方式:
暂无
卫星简介
星链(Starlink)计划是由太空探索技术公司(SpaceX)提出的一个巨型低轨卫星互联网星座项目,计划在2019年至2024年间在太空搭建由约1.2万颗卫星组成的“星链”网络,其中1584颗将部署在地球上空550千米处的近地轨道,并从2020年开始工作。该卫星仍在工作。
2D轨道图
3D轨道图
轨道高度分析图
轨道倾角分析图
轨道综合分析图
查看轨道综合分析图